STARLINK-33792, 63506

Orbit data source: Space-Track

STARLINK-33792, 63506 is a payload satellite owned by SpaceX/Seattle (US) in LEO that was launched on Mon, 07 Apr 2025 UTC via an FALCON 9 launch vehicle from the Air Force Western Test Range (AFWTR). Payload-class satellites include a variety of spacecraft equipped with specific instruments for various scientific and technological missions. These include communications satellites like Starlink; space stations such as the ISS; scientific satellites like the Hubble; Earth observation satellites from companies like Planet Labs, Umbra, and HawkEye 360; GPS; miniature CubeSats for education and research; and military/defense satellites.

Loading next visibility...
Identifier
63506, 2025-071P
Orbit
LEO
Country
Flag of USUS
Related business
Manufacturer
SpaceX/Seattle
Mission
Operational Commercial Communications
Bus & Motor
STARLINK V2MO, Unknown motor
Mass
575 kg wet, ~530 kg dry
Launch date (UTC)
2025-04-07 (10 months ago)
Launch vehicle
FALCON 9
Launch site
Air Force Western Test Range (AFWTR)
Object type
Payload
Rocket body
Debris
Shape & HBR
Box + 2 Pan, 17.7 m
Radar Cross Section
36.964 m², Large (>1 m²)

Expand to show TLE details & history
Last TLE update: 16 hours ago

TLE from 16 hours ago
0 STARLINK-33792
1 63506U 25071P   26034.14410389  .00033017  00000-0  11204-2 0  9994
2 63506  53.1590 300.1835 0001815  70.3741 289.7455 15.30243771 47433
Epoch: 2026-02-03T03:27Z
TLE epoch observation values (Epoch: 2026-02-03T03:27:30.576Z)
Latitude
-0.00005°
Longitude
114.97681°
Altitude
475.564 km
Speed
7.629 km/s
True Right ascension
20h 00m 44s
True Declination
0° 00' 00"
Sunlit
Object was in daylight at epoch
Visualization orbit readout
Latitude
Unknown
Longitude
Unknown
Altitude
Unknown
Speed
Unknown
Apparent Right ascension
Unknown
Apparent Declination
Unknown
Sunlit
N/A
Visualization observer readout
Local Sidereal Time
21:10:08
Azimuth
Unknown
Elevation
Unknown
Doppler factor
Unknown
Orbital elements
Apogee altitude
476.585 km
Perigee altitude
474.097 km
Semi-major axis
6,853.478 km
Eccentricity
0.00018
Inclination
53.159°
RAAN
300.1835°
Arg. of periapsis
70.3741°
True anomaly
289.72592°
Mean anomaly
289.7455°
Eccentric anomaly
289.73571°
Mean motion
3.8254 °/min
Orbital period
94.11 mins
BSTAR
0.0011204
Loading maneuver chart data...
Computing Atmospheric mass density...
Loading historical data...
Loading historical data...
Loading historical data...
Loading historical data...
Loading historical data...
Loading historical data...
Loading historical data...

Documentation

Showing up to 5 results
|